Find Starlink 31518

NORAD ID: 59219 Int'l Des: 2024-046 Owner: SPXS Country: US Constellation: starlink operational
LEOCIRCULAR

現在のビュー

3D地球を読み込み中...

Starlink 31518について

説明を読み込み中...

次回通過

Passes for default location (London). Set your location on the main map for personalized predictions.

高度履歴

Loading altitude history...

軌道要素

1 59219U 24046U 26151.09743931 .00000661 00000-0 30715-4 0 9996
2 59219 53.1608 131.3538 0001180 85.4629 274.6508 15.34392077125673
Epoch: May 31, 2026 • Age: 13 hours

現在のステータス

高度 467.9 km
速度 7.63 km/s
衛星直下点 -17.69°S, 162.48°W
打ち上げ日 Mar 11, 2024
運用期間 2.2 years
タイプ internet

技術仕様

分類 Payload
質量 730.00 kg
乾燥質量 700.00 kg
総質量 730.00 kg
長さ 0.30 m
直径 4.10 m
スパン 29.00 m
形状 Box + pan
製造者 SPXS
バスタイプ Starlink V2M
フェーズステータス In Orbit
所有者/国 SPXS/US

Most Searched